Location: Newark
(50.0336°N, 22.0047°E)
Time: 11:29:24
(UTC+00:00)

N. Korean satellite - Pass Details

Date: 02 February 2020
Orbit: 456 x 505 km, 97.2° (Epoch: 23 February)

Event Time Altitude Azimuth Distance (km) Brightness Sun altitude
Rises 16:03:16 0° 191° (SSW) 2,467 10.6 -6.3°
Reaches altitude 10° 16:05:29 10° 204° (SSW) 1,603 9.9 -6.6°
Maximum altitude 16:08:29 28° 265° (W) 907 9.0 -7.0°
Drops below altitude 10° 16:11:33 10° 326° (NW) 1,633 9.5 -7.5°
Sets 16:13:50 0° 338° (NNW) 2,524 10.3 -7.9°
